Voltar ao catálogo

MORELOS 2

AtivoComunicaçõesGEO
NORAD 16274·PAYLOAD·🇲🇽 Mexico

Lançado Nov 27, 1985 de Cape Canaveral Space Force Station

Loading…

TLE

AtualizadoSource: Space-Track

Época: Sep 13, 2026, 22:33 UTC

1 16274U 85109B   26256.94026282  .00000053  00000-0  00000-0 0  9995
2 16274  14.7623 356.0180 0005113 178.8422 190.4060  0.99563600 47245

Acompanhe MORELOS 2 em tempo real com AllMySat

Download on the App Store